Home > Weather > Dindigul > Past weeks

Flag for India Past Weather in Dindigul, Tamil Nadu, India — Yesterday and Last 2 Weeks

Now
84 °F

Broken clouds.


Feels Like: 87 °F
Forecast: 78 / 96 °F
Wind: 9 mph from West

Location: Tiruchchirapalli

Current Time: Jul 2, 2016 at 7:42:18 AM

Latest Report: Jul 2, 2016 at 7:00 AM


Visibility: 4 mi

Pressure: 29.68 "Hg

Humidity: 58%

Dew Point: 68 °F

Location of DindigulLocation

Past Weather in Dindigul — Graph

°F

Dindigul Temperature Yesterday

Maximum temperature yesterday: 100 °F (at 2:30 PM)
Minimum temperature yesterday: 82 °F (at 2:30 AM)
Average temperature yesterday: 90 °F

High & Low Weather Summary for the Past Weeks

 TemperatureHumidityPressure
High100 °F (Jun 20, 3:00 PM)94% (Jun 18, 10:30 PM)29.80 "Hg (Jun 18, 10:30 PM)
Low77 °F (Jun 18, 10:30 PM)35% (Jun 20, 3:00 PM)29.56 "Hg (Jun 17, 3:30 PM)
Average87 °F57%29.68 "Hg
* Reported Jun 17 6:30 AM — Jul 2 6:30 AM, Dindigul, Weather by CustomWeather, © 2016

Note: Actual official high and low records may vary slightly from our data, if they occured in-between our weather recording intervals... More about our weather records

Advertising

Dindigul Weather History for the Previous 24 Hours

Scroll right to see more
 ConditionsComfort  
Time TempWeatherWind HumidityBarometerVisibility
6:30 AM
Sat, Jul 2
84 °FBroken clouds.9 mph58%29.65 "Hg4 mi
6:00 AM84 °FPartly cloudy.9 mph55%29.65 "Hg4 mi
5:30 AM84 °FPartly cloudy.12 mph55%29.65 "Hg4 mi
5:00 AM84 °FPartly cloudy.12 mph55%29.65 "Hg4 mi
4:00 AM84 °FPartly cloudy.16 mph55%29.65 "Hg4 mi
3:30 AM84 °FPartly cloudy.16 mph55%29.62 "Hg4 mi
3:00 AM84 °FPartly cloudy.12 mph55%29.65 "Hg4 mi
2:30 AM84 °FPartly cloudy.12 mph55%29.65 "Hg4 mi
2:00 AM84 °FPartly cloudy.14 mph55%29.65 "Hg4 mi
1:30 AM86 °FPartly cloudy.9 mph52%29.68 "Hg4 mi
1:00 AM86 °FPartly cloudy.14 mph52%29.68 "Hg4 mi
12:30 AM86 °FPartly cloudy.14 mph52%29.71 "Hg4 mi
11:30 PM
Fri, Jul 1
88 °FPartly cloudy.12 mph49%29.74 "Hg4 mi
11:00 PM88 °FPartly cloudy.9 mph49%29.74 "Hg4 mi
10:30 PM90 °FPartly cloudy.9 mph46%29.74 "Hg4 mi
10:00 PM90 °FPartly cloudy.9 mph46%29.71 "Hg4 mi
9:30 PM90 °FPartly cloudy.12 mph46%29.71 "Hg4 mi
9:00 PM90 °FPartly cloudy.12 mph43%29.71 "Hg4 mi
8:30 PM90 °FPartly cloudy.16 mph43%29.71 "Hg4 mi
8:00 PM91 °FPartly cloudy.16 mph44%29.68 "Hg4 mi
7:30 PM91 °FPartly cloudy.16 mph44%29.68 "Hg4 mi
7:00 PM91 °FBroken clouds.21 mph44%29.65 "Hg4 mi
6:30 PM91 °FBroken clouds.16 mph44%29.65 "Hg4 mi
6:00 PM93 °FBroken clouds.20 mph41%29.62 "Hg4 mi
5:30 PM95 °FBroken clouds.18 mph39%29.62 "Hg4 mi
5:00 PM99 °FScattered clouds.18 mph37%29.62 "Hg4 mi
4:30 PM99 °FScattered clouds.18 mph37%29.62 "Hg4 mi
4:00 PM100 °FScattered clouds.21 mph37%29.59 "Hg4 mi
3:30 PM100 °FScattered clouds.21 mph37%29.59 "Hg4 mi
3:00 PM100 °FScattered clouds.21 mph37%29.59 "Hg4 mi
2:30 PM100 °FPartly sunny.20 mph35%29.62 "Hg4 mi
2:00 PM99 °FPartly sunny.22 mph35%29.62 "Hg4 mi
1:30 PM97 °FPartly sunny.21 mph37%29.65 "Hg4 mi
1:00 PM97 °FPartly sunny.21 mph37%29.65 "Hg4 mi
12:30 PM95 °FBroken clouds.21 mph39%29.65 "Hg4 mi
12:00 PM95 °FPartly sunny.20 mph39%29.68 "Hg4 mi
11:30 AM95 °FScattered clouds.21 mph39%29.68 "Hg4 mi
11:00 AM93 °FScattered clouds.22 mph44%29.71 "Hg4 mi
10:30 AM91 °FScattered clouds.17 mph46%29.71 "Hg4 mi
10:00 AM91 °FScattered clouds.20 mph46%29.74 "Hg4 mi
9:30 AM90 °FScattered clouds.13 mph49%29.74 "Hg4 mi
9:00 AM88 °FScattered clouds.10 mph52%29.74 "Hg4 mi
8:30 AM86 °FScattered clouds.13 mph55%29.71 "Hg4 mi
8:00 AM84 °FScattered clouds.15 mph62%29.71 "Hg4 mi
7:30 AM84 °FScattered clouds.9 mph62%29.71 "Hg4 mi
7:00 AM84 °FScattered clouds.8 mph62%29.71 "Hg4 mi
Weather by CustomWeather, © 2016

See weather overviewHow to use our weather pages